Location: Barcelona
(41.3830°N, 2.1830°E)
Time: 12:16:50
(UTC+01:00)

ISS - Pass Details

Date: 22 March 2019
Orbit: 408 x 411 km, 51.6° (Epoch: 24 March)

Event Time Altitude Azimuth Distance (km) Brightness Sun altitude
Rises 19:32:03 0° 207° (SSW) 2,320 0.3 -5.9°
Reaches altitude 10° 19:34:19 10° 195° (SSW) 1,464 -0.9 -6.3°
Maximum altitude 19:37:08 27° 135° (SE) 824 -2.7 -6.8°
Drops below altitude 10° 19:39:59 10° 76° (ENE) 1,471 -1.6 -7.3°
Enters shadow 19:40:25 - 72° (ENE) 1,632 -1.3 -7.4°
